Weather History for Bentonville, AR

Change the Weather History Date:

Friday, December 21, 2012

  Actual Average Record
Temperature  
Mean Temperature 36 °F -  
Max Temperature 50 °F 46 °F 68 °F (1966)
Min Temperature 21 °F 24 °F 2 °F (1951)
Degree Days  
Heating Degree Days 30    
Moisture  
Dew Point 16 °F    
Average Humidity 50    
Maximum Humidity 74    
Minimum Humidity 26    
Precipitation  
Precipitation 0.00 in - - ()
Sea Level Pressure  
Sea Level Pressure 30.29 in    
Wind  
Wind Speed 4 mph (SSW)    
Max Wind Speed 7 mph    
Max Gust Speed -    
Visibility 10 miles    
Events      
Averages and records for this station are not official NWS values.
T = Trace of Precipitation, MM = Missing Value Source: NWS Daily Summary

Daily Weather History Graph

Daily Weather History Graph

Search for Another Location

Airport:

Trip Planner

Search our weather history database for the weather conditions in past years. The results will help you decide how hot, cold, wet, or windy it might be!

Date:

Astronomy

Dec. 21, 2012 Rise Set
Actual Time 7:24 AM CST 5:05 PM CST
Civil Twilight 6:56 AM CST 5:34 PM CST
Nautical Twilight 6:23 AM CST 6:06 PM CST
Astronomical Twilight 5:52 AM CST 6:38 PM CST
Moon 12:46 PM CST 1:19 AM CST
Length of Visible Light 10h 38m
Length of Day
9h 40m
Waxing Gibbous, 65% of the Moon is Illuminated
Dec 21
Waxing Gibbous
Dec 28
Full
Jan 4
Last Quarter
Jan 11
New
Jan 18
First Quarter

Hourly Weather History & Observations

Time (CST) Temp. Windchill Dew Point Humidity Pressure Visibility Wind Dir Wind Speed Gust Speed Precip Events Conditions
12:15 AM 30.2 °F 23.4 °F 12.2 °F 47% 30.27 in 10.0 mi NW 6.9 mph - N/A   Clear
1:15 AM 28.4 °F 22.2 °F 12.2 °F 51% 30.27 in 10.0 mi WNW 5.8 mph - N/A   Clear
1:55 AM 26.6 °F 22.6 °F 12.2 °F 55% 30.27 in 10.0 mi SW 3.5 mph - N/A   Clear
2:15 AM 26.6 °F 21.2 °F 14.0 °F 59% 30.28 in 10.0 mi WSW 4.6 mph - N/A   Clear
2:35 AM 26.6 °F 21.2 °F 12.2 °F 55% 30.28 in 10.0 mi WSW 4.6 mph - N/A   Clear
2:55 AM 24.8 °F - 14.0 °F 64% 30.27 in 10.0 mi Calm Calm - N/A   Clear
3:35 AM 24.8 °F 19.1 °F 14.0 °F 64% 30.28 in 10.0 mi WSW 4.6 mph - N/A   Clear
3:55 AM 24.8 °F 20.5 °F 15.8 °F 69% 30.28 in 10.0 mi West 3.5 mph - N/A   Clear
4:15 AM 24.8 °F - 15.8 °F 69% 30.28 in 10.0 mi Calm Calm - N/A   Clear
4:35 AM 24.8 °F 20.5 °F 15.8 °F 69% 30.28 in 10.0 mi West 3.5 mph - N/A   Clear
4:55 AM 24.8 °F 20.5 °F 15.8 °F 69% 30.29 in 10.0 mi West 3.5 mph - N/A   Clear
5:15 AM 24.8 °F 17.9 °F 15.8 °F 69% 30.29 in 10.0 mi WSW 5.8 mph - N/A   Clear
5:35 AM 24.8 °F 16.9 °F 15.8 °F 69% 30.29 in 10.0 mi WSW 6.9 mph - N/A   Clear
5:55 AM 24.8 °F 16.9 °F 15.8 °F 69% 30.30 in 10.0 mi WSW 6.9 mph - N/A   Clear
6:15 AM 23.0 °F - 15.8 °F 74% 30.30 in 10.0 mi Calm Calm - N/A   Clear
6:35 AM 21.2 °F 16.4 °F 14.0 °F 74% 30.31 in 10.0 mi West 3.5 mph - N/A   Clear
6:55 AM 23.0 °F 17.0 °F 15.8 °F 74% 30.31 in 10.0 mi West 4.6 mph - N/A   Clear
7:35 AM 21.2 °F - 14.0 °F 74% 30.32 in 10.0 mi Calm Calm - N/A   Clear
7:55 AM 23.0 °F - 15.8 °F 74% 30.32 in 10.0 mi Calm Calm - N/A   Clear
8:15 AM 24.8 °F - 17.6 °F 74% 30.33 in 10.0 mi Calm Calm - N/A   Clear
8:55 AM 30.2 °F - 17.6 °F 60% 30.34 in 10.0 mi Calm Calm - N/A   Clear
9:15 AM 30.2 °F - 17.6 °F 60% 30.34 in 10.0 mi Calm Calm - N/A   Clear
9:35 AM 33.8 °F - 17.6 °F 52% 30.35 in 10.0 mi Calm Calm - N/A   Clear
9:55 AM 33.8 °F - 17.6 °F 52% 30.35 in 10.0 mi Calm Calm - N/A   Clear
10:15 AM 35.6 °F 32.8 °F 19.4 °F 52% 30.36 in 10.0 mi SW 3.5 mph - N/A   Clear
10:55 AM 37.4 °F 34.9 °F 17.6 °F 45% 30.36 in 10.0 mi WSW 3.5 mph - N/A   Clear
11:15 AM 39.2 °F 35.9 °F 19.4 °F 45% 30.35 in 10.0 mi WSW 4.6 mph - N/A   Clear
11:55 AM 41.0 °F 36.4 °F 15.8 °F 36% 30.34 in 10.0 mi WSW 6.9 mph - N/A   Clear
12:15 PM 42.8 °F - 17.6 °F 36% 30.33 in 10.0 mi Calm Calm - N/A   Clear
12:35 PM 44.6 °F 41.4 °F 17.6 °F 34% 30.33 in 10.0 mi SW 5.8 mph - N/A   Clear
1:15 PM 46.4 °F 44.3 °F 17.6 °F 32% 30.31 in 10.0 mi West 4.6 mph - N/A   Clear
1:35 PM 46.4 °F 45.2 °F 15.8 °F 29% 30.30 in 10.0 mi WNW 3.5 mph - N/A   Clear
1:55 PM 48.2 °F - 15.8 °F 27% 30.29 in 10.0 mi Calm Calm - N/A   Clear
2:15 PM 48.2 °F - 15.8 °F 27% 30.28 in 10.0 mi Calm Calm - N/A   Clear
2:55 PM 50.0 °F - 15.8 °F 26% 30.27 in 10.0 mi SSE 3.5 mph - N/A   Clear
3:15 PM 48.2 °F - 17.6 °F 30% 30.27 in 10.0 mi Calm Calm - N/A   Clear
3:35 PM 50.0 °F - 17.6 °F 28% 30.26 in 10.0 mi Calm Calm - N/A   Clear
3:55 PM 50.0 °F - 17.6 °F 28% 30.26 in 10.0 mi SSE 3.5 mph - N/A   Clear
4:15 PM 48.2 °F - 15.8 °F 27% 30.25 in 10.0 mi SSE 4.6 mph - N/A   Clear
4:35 PM 46.4 °F 45.2 °F 15.8 °F 29% 30.25 in 10.0 mi SE 3.5 mph - N/A   Clear
5:15 PM 42.8 °F - 15.8 °F 34% 30.25 in 10.0 mi Calm Calm - N/A   Clear
5:35 PM 39.2 °F - 15.8 °F 39% 30.25 in 10.0 mi Calm Calm - N/A   Clear
5:55 PM 42.8 °F 41.1 °F 17.6 °F 36% 30.26 in 10.0 mi East 3.5 mph - N/A   Clear
6:35 PM 42.8 °F 40.1 °F 17.6 °F 36% 30.26 in 10.0 mi ESE 4.6 mph - N/A   Clear
6:55 PM 39.2 °F 35.9 °F 17.6 °F 42% 30.26 in 10.0 mi ESE 4.6 mph - N/A   Clear
7:15 PM 39.2 °F 35.0 °F 17.6 °F 42% 30.26 in 10.0 mi ESE 5.8 mph - N/A   Clear
7:35 PM 39.2 °F 35.9 °F 17.6 °F 42% 30.26 in 10.0 mi ESE 4.6 mph - N/A   Clear
8:15 PM 39.2 °F 35.0 °F 17.6 °F 42% 30.26 in 10.0 mi ESE 5.8 mph - N/A   Clear
8:35 PM 37.4 °F 32.8 °F 17.6 °F 45% 30.26 in 10.0 mi ESE 5.8 mph - N/A   Clear
9:15 PM 37.4 °F 32.1 °F 17.6 °F 45% 30.25 in 10.0 mi ESE 6.9 mph - N/A   Clear
9:55 PM 35.6 °F 30.7 °F 17.6 °F 48% 30.25 in 10.0 mi ESE 5.8 mph - N/A   Clear
10:15 PM 35.6 °F 30.7 °F 17.6 °F 48% 30.25 in 10.0 mi ESE 5.8 mph - N/A   Clear
10:35 PM 33.8 °F 28.6 °F 17.6 °F 52% 30.25 in 10.0 mi ESE 5.8 mph - N/A   Clear
10:55 PM 33.8 °F 29.6 °F 17.6 °F 52% 30.25 in 10.0 mi SE 4.6 mph - N/A   Clear
11:15 PM 33.8 °F 30.8 °F 19.4 °F 56% 30.24 in 10.0 mi SE 3.5 mph - N/A   Clear
11:35 PM 33.8 °F 29.6 °F 17.6 °F 52% 30.24 in 10.0 mi SE 4.6 mph - N/A   Clear
11:55 PM 32.0 °F 27.5 °F 17.6 °F 55% 30.24 in 10.0 mi SE 4.6 mph - N/A   Clear